Flag for Tunisia Weather past 2 weeks in Tunis, Tunisia

Now
93 °F

Passing clouds.


Feels Like: 91 °F
Forecast: 70 / 93 °F
Wind: 10 mph from Northeast

Location: Tunis-Carthage

Current Time: Jul 2, 2015 at 2:19:09 PM

Latest Report: Jul 2, 2015 at 1:30 PM


Visibility: N/A

Pressure: 30.09 "Hg

Humidity: 28%

Dew point: 55 °F

Location of TunisLocation

Historic Weather in Tunis — Graph

°F

Tunis temperature yesterday

Maximum temperature yesterday: 93 °F (at 2:30 PM)
Minimum temperature yesterday: 66 °F (at 4:30 AM)
Average temperature yesterday: 81 °F

Past Weeks' High & Low Weather Summary

 TemperatureHumidityPressure
High97 °F (Jun 23, 11:30 AM)100% (Jun 30, 6:00 AM)30.12 "Hg (Jun 30, 6:00 AM)
Low64 °F (Jun 22, 5:30 AM)19% (Jun 28, 3:30 PM)29.83 "Hg (Jun 23, 3:30 PM)
Average79 °F55%30.03 "Hg
* Reported Jun 17 1:00 PM — Jul 2 1:00 PM, Tunis, Weather by CustomWeather, © 2015

Note: Actual official high and low records may vary slightly from our data, if they occured in-between our weather recording intervals... More about our weather records

Advertising

Tunis weather history for previous 24 hours

 ConditionsComfort  
Time TempWeatherWind HumidityBarometerVisibility
1:00 PM
Thu, Jul 2
91 °FPassing clouds.12 mph28%30.09 "HgN/A
12:30 PM91 °FPassing clouds.12 mph30%30.12 "HgN/A
12:00 PM90 °FPassing clouds.13 mph36%30.12 "HgN/A
11:30 AM90 °FPassing clouds.10 mph38%30.12 "HgN/A
11:00 AM90 °FPassing clouds.9 mph38%30.12 "HgN/A
10:30 AM88 °FPassing clouds.9 mph40%30.12 "HgN/A
10:00 AM86 °FPassing clouds.6 mph43%30.12 "HgN/A
9:30 AM86 °FPassing clouds.6 mph43%30.12 "HgN/A
9:00 AM84 °FPassing clouds.6 mph48%30.12 "HgN/A
8:30 AM84 °FPassing clouds.6 mph51%30.12 "HgN/A
8:00 AM81 °FPassing clouds.6 mph62%30.12 "HgN/A
7:30 AM79 °FPassing clouds.7 mph74%30.12 "HgN/A
7:00 AM77 °FPassing clouds.6 mph79%30.12 "HgN/A
6:30 AM77 °FPassing clouds.5 mph79%30.09 "HgN/A
6:00 AM75 °FMild.5 mph83%30.09 "HgN/A
5:30 AM73 °FPassing clouds.5 mph89%30.09 "HgN/A
5:00 AM73 °FPassing clouds.3 mph89%30.09 "HgN/A
4:30 AM73 °FPassing clouds.7 mph89%30.09 "HgN/A
4:00 AM73 °FPassing clouds.7 mph89%30.09 "HgN/A
3:30 AM73 °FPassing clouds.6 mph89%30.09 "HgN/A
3:00 AM73 °FPassing clouds.7 mph89%30.09 "HgN/A
2:30 AM73 °FPassing clouds.8 mph89%30.09 "HgN/A
2:00 AM75 °FPassing clouds.8 mph78%30.09 "HgN/A
1:30 AM75 °FPassing clouds.7 mph78%30.09 "HgN/A
1:00 AM75 °FPassing clouds.6 mph78%30.09 "HgN/A
12:30 AM75 °FPassing clouds.6 mph78%30.09 "HgN/A
12:00 AM75 °FPassing clouds.8 mph78%30.09 "HgN/A
11:30 PM
Wed, Jul 1
75 °FPassing clouds.7 mph78%30.09 "HgN/A
11:00 PM77 °FPassing clouds.7 mph69%30.09 "HgN/A
10:00 PM77 °FPassing clouds.9 mph65%30.09 "HgN/A
9:30 PM79 °FPassing clouds.12 mph58%30.09 "HgN/A
9:00 PM81 °FPassing clouds.10 mph51%30.09 "HgN/A
8:30 PM81 °FPassing clouds.8 mph51%30.07 "HgN/A
8:00 PM82 °FPassing clouds.10 mph45%30.07 "HgN/A
7:30 PM82 °FPassing clouds.12 mph48%30.07 "HgN/A
7:00 PM84 °FPassing clouds.12 mph45%30.04 "HgN/A
6:30 PM88 °FPassing clouds.10 mph40%30.04 "HgN/A
6:00 PM90 °FPassing clouds.9 mph33%30.04 "HgN/A
5:30 PM91 °FPassing clouds.9 mph36%30.04 "HgN/A
5:00 PM93 °FPassing clouds.12 mph21%30.04 "HgN/A
4:30 PM93 °FPassing clouds.12 mph21%30.04 "HgN/A
4:00 PM93 °FPassing clouds.10 mph23%30.04 "HgN/A
3:30 PM93 °FPassing clouds.13 mph24%30.04 "HgN/A
2:30 PM93 °FPassing clouds.12 mph24%30.04 "HgN/A
Weather by CustomWeather, © 2015

See weather overviewHow to use our weather pages